This is the latest recevied weather packets stored in our database for station/object K8JMX-13. If no packets are shown the sender has not sent any weather packets the latest 10 day(s).
| Time | Temp. | Humidity | Pressure | Rain* | Wind** | Luminosity | Snow |
|---|---|---|---|---|---|---|---|
| 1777650626 | 7.78° C | 85% | 1010.6 hPa | 1.78 mm | - | 40 W/m² | - |
| 1777650324 | 7.78° C | 85% | 1010.6 hPa | 0 mm | - | 45 W/m² | - |
| 1777650021 | 7.78° C | 85% | 1010.4 hPa | 0 mm | - | 45 W/m² | - |
| 1777649719 | 7.78° C | 85% | 1010.5 hPa | 1.27 mm | - | 34 W/m² | - |
| 1777649414 | 7.78° C | 84% | 1010.5 hPa | 1.27 mm | - | 61 W/m² | - |
| 1777649111 | 7.78° C | 85% | 1010.6 hPa | 1.78 mm | - | 105 W/m² | - |
| 1777648804 | 7.78° C | 85% | 1010.5 hPa | 1.78 mm | - | 114 W/m² | - |
| 1777648500 | 7.78° C | 84% | 1010.6 hPa | 1.27 mm | - | 54 W/m² | - |
| 1777648197 | 7.78° C | 83% | 1010.5 hPa | 1.78 mm | - | 57 W/m² | - |
| 1777647892 | 7.78° C | 82% | 1010.6 hPa | 3.05 mm | - | 51 W/m² | - |
| 1777647589 | 7.78° C | 81% | 1010.6 hPa | 3.05 mm | - | 48 W/m² | - |
| 1777647285 | 7.78° C | 79% | 1010.6 hPa | 1.78 mm | - | 46 W/m² | - |
| 1777646983 | 8.33° C | 79% | 1010.4 hPa | 0 mm | - | 50 W/m² | - |
| 1777646679 | 8.33° C | 80% | 1010.5 hPa | 0 mm | - | 65 W/m² | - |
| 1777646375 | 7.78° C | 79% | 1010.8 hPa | 0 mm | - | 67 W/m² | - |
| 1777646072 | 7.78° C | 79% | 1010.8 hPa | 0 mm | - | 33 W/m² | - |
| 1777645768 | 8.33° C | 79% | 1010.8 hPa | 0 mm | - | 49 W/m² | - |
| 1777645466 | 7.78° C | 79% | 1010.9 hPa | 0 mm | - | 96 W/m² | - |
| 1777645161 | 7.78° C | 79% | 1010.9 hPa | 0 mm | - | 79 W/m² | - |
| 1777644858 | 7.78° C | 80% | 1010.9 hPa | 0 mm | - | 89 W/m² | - |
| 1777644556 | 7.78° C | 80% | 1011 hPa | 0 mm | - | 64 W/m² | - |
| 1777644250 | 7.78° C | 80% | 1011 hPa | 0 mm | - | 63 W/m² | - |
| 1777643948 | 7.78° C | 82% | 1011.2 hPa | 0 mm | - | 106 W/m² | - |
| 1777643645 | 7.78° C | 82% | 1011 hPa | 0 mm | - | 76 W/m² | - |
| 1777643342 | 7.78° C | 83% | 1010.9 hPa | 0 mm | - | 54 W/m² | - |
* Rain latest hour (hover to see other rain measurements)
** Current wind speed in m/s (hover to see current wind gust speed)